[[{"header":{"parameterUnit":"m.s-1","parameterCategory":1,"la1":30.2991,"la2":30.254,"lo1":-89.0895,"lo2":-89.0444,"dy":0.0017,"dx":0.0017,"nx":28,"ny":28,"refTime":"2026-02-26T09:00:00:Z","depth":0,"parameterNumber":2,"parameterNumberName":"U-component_of_WINDS"},"data":[0,0,0,0,0,0,0,0,0,0,0,0,0,0,0,0,0,0,0,0,0,0,0,0,0,0,0,0,0,0,0,0,0,0,0,0,0,0,0,0,0,0,0,0,0,0,0,0,0,0,0,0,0,0,0,0,0,0,0.7617,0.7616,0,0.7532,0.7531,0.753,0.7446,0.7445,0.7444,0.7443,0.7355,0.7354,0.7353,0,0,0,0,0,0,0,0,0,0,0,0,0,0.7708,0.7707,0.7617,0.7616,0.7615,0.7532,0.7531,0.7529,0.7446,0.7445,0.7443,0.7442,0.7356,0.7354,0.7353,0,0,0,0,0,0,0,0,0,0,0,0,0,0.765,0.7706,0.7617,0.7563,0.7558,0.7532,0.7531,0.7529,0.7446,0.7445,0.7443,0.7442,0.7356,0.7354,0.7352,0.7373,0,0,0.7347,0.7346,0,0,0,0,0,0,0,0,0.7653,0.7647,0.7572,0.7567,0.7561,0.7498,0.753,0.7477,0.7447,0.7489,0.7443,0.7441,0.7404,0.7398,0.7386,0.7369,0.7365,0.7346,0.7345,0.7344,0.7344,0,0,0,0,0,0,0,0.7658,0.765,0.7583,0.7571,0.7564,0.7543,0.7533,0.752,0.7457,0.7485,0.7479,0.747,0.7401,0.7388,0.7383,0.7364,0.7346,0.7345,0.7343,0.7343,0.7359,0.7361,0,0,0,0,0,0,0.767,0.7654,0.7586,0.7581,0.7604,0.7543,0.7532,0.752,0.7457,0.7445,0.7471,0.7466,0.7392,0.7385,0.738,0.7399,0.7344,0.7342,0.7341,0.7357,0.7359,0.7361,0,0,0,0,0,0,0.7672,0.7665,0.7589,0.7616,0.7604,0.7543,0.753,0.7519,0.7506,0.7446,0.7434,0.747,0.739,0.7382,0.7375,0.7395,0.7342,0.734,0.7356,0.7358,0.736,0.744,0,0,0,0,0,0,0.7675,0.7666,0.7673,0.7616,0.7603,0.7587,0.7531,0.7518,0.7503,0.7495,0.7442,0.7431,0.7388,0.7379,0.7373,0.7392,0.7338,0.7353,0.7357,0.736,0.7435,0.7445,0.7453,0,0,0,0,0,0.7679,0.7699,0.7674,0.7666,0.7611,0.7588,0.7581,0.7531,0.7505,0.7512,0.7473,0.7433,0.7394,0.7379,0.7372,0.739,0.7352,0.7356,0.7359,0.7431,0.7443,0.7453,0,0,0,0,0,0,0.7761,0.7691,0.7662,0.7665,0.7633,0.7574,0.7582,0.7545,0.752,0.7514,0.7453,0.7442,0.7442,0.7415,0.7399,0.7406,0.7367,0.737,0.7424,0.7435,0.7443,0.745,0.7337,0,0,0,0,0,0.7779,0.7766,0.7706,0.7714,0.77,0.7644,0.7632,0.7596,0.756,0.7547,0.7507,0.7475,0.7454,0.7443,0.7421,0.743,0.7417,0.7439,0.7448,0.7455,0.7459,0.7461,0.747,0.7373,0.7373,0.7373,0,0,0.7817,0.7777,0.7773,0.773,0.7701,0.7689,0.7633,0.7623,0.7613,0.7545,0.7536,0.7506,0.7465,0.7466,0.7465,0.7444,0.7482,0.746,0.7467,0.7466,0.7466,0.7475,0.7483,0.7376,0.7375,0.7375,0,0,0.788,0.7849,0.7852,0.7824,0.7781,0.7743,0.7744,0.769,0.7668,0.7658,0.7606,0.7594,0.7561,0.7534,0.7516,0.7567,0.753,0.7562,0.7608,0.7611,0.7619,0.7626,0.7644,0.7652,0.7565,0.7565,0.7565,0,0.7933,0.7913,0.7859,0.7852,0.7834,0.7771,0.7774,0.775,0.7702,0.7691,0.7668,0.7625,0.7593,0.7586,0.7599,0.7586,0.7585,0.7568,0.7622,0.7628,0.7634,0.7651,0.7658,0.7569,0.7569,0.7568,0.7568,0,0.798,0.7967,0.7975,0.793,0.7913,0.7911,0.7856,0.7846,0.7811,0.7776,0.7766,0.7725,0.7694,0.7689,0.7656,0.7678,0.7666,0.7634,0.7594,0.7648,0.7663,0.7669,0.7576,0.7574,0.7573,0.7572,0,0,0.8094,0.8019,0.8023,0.8001,0.7948,0.7937,0.7932,0.7901,0.7893,0.7862,0.7856,0.7829,0.7798,0.7777,0.774,0.7742,0.7786,0.7709,0.7707,0.7725,0.7808,0.7834,0.7842,0.776,0.7761,0.7762,0.7811,0,0.8149,0.8136,0.8087,0.8089,0.8076,0.8015,0.8011,0.7978,0.7944,0.7928,0.7891,0.7873,0.7833,0.782,0.782,0.7781,0.7802,0.7776,0.7754,0.7754,0.7767,0.785,0.7877,0.7926,0.7817,0.7818,0.7819,0,0.8211,0.8184,0.8185,0.8132,0.8125,0.8122,0.8089,0.8074,0.8035,0.8011,0.7988,0.7945,0.7936,0.7898,0.7883,0.7867,0.7855,0.7834,0.7835,0.7831,0.7791,0.785,0.794,0.7948,0.7827,0.7827,0.7826,0,0.8295,0.8258,0.8254,0.8238,0.8176,0.8175,0.8149,0.8108,0.8093,0.8064,0.8053,0.8024,0.8008,0.7986,0.7937,0.7913,0.7928,0.7886,0.7907,0.7909,0.7914,0.7915,0.8005,0.7905,0.7905,0.7905,0.7905,0,0.8362,0.8365,0.8291,0.8288,0.829,0.8232,0.8235,0.8203,0.8167,0.8157,0.8102,0.8094,0.8029,0.8013,0.7974,0.7968,0.7961,0.7941,0.7931,0.7946,0.7949,0.7938,0.7934,0.7907,0.7906,0.7906,0.7906,0,0.8456,0.8406,0.8398,0.834,0.8325,0.8329,0.8278,0.8273,0.8236,0.8224,0.8218,0.8159,0.8138,0.8086,0.805,0.8024,0.8028,0.8009,0.8042,0.8036,0.806,0.8059,0.8148,0.8156,0.8051,0.8052,0.8053,0,0.8503,0.8503,0.8445,0.8435,0.8411,0.8395,0.8378,0.8322,0.8307,0.8262,0.8262,0.8236,0.8212,0.818,0.8134,0.8106,0.8086,0.8119,0.8082,0.8097,0.8087,0.8088,0.8088,0.8128,0.813,0.8131,0.8132,0,0.859,0.8565,0.8544,0.8515,0.8497,0.8471,0.8442,0.8436,0.8372,0.8358,0.8335,0.8317,0.828,0.8255,0.822,0.8192,0.8151,0.8144,0.8147,0.8164,0.8183,0.8173,0.8065,0.8142,0.8141,0.814,0.814,0.8139,0.8662,0.866,0.8619,0.8597,0.8569,0.8543,0.8535,0.8497,0.8477,0.8443,0.841,0.8391,0.835,0.8299,0.8274,0.8257,0.8237,0.8242,0.8243,0.8246,0.8253,0.8185,0.8251,0.825,0.825,0.825,0.8249,0,0.8747,0.8717,0.8698,0.8659,0.8642,0.8605,0.857,0.8558,0.8542,0.8508,0.8485,0.8459,0.8433,0.8385,0.8356,0.8352,0.8332,0.8346,0.8346,0.834,0.8273,0.8273,0.8362,0.8362,0.8362,0.8362,0.8362,0.8362,0.879,0.8784,0.8755,0.8734,0.8704,0.8685,0.8668,0.8644,0.8616,0.8589,0.8568,0.8537,0.8497,0.8464,0.8439,0.8425,0.8417,0.8437,0.8417,0.8355,0.8345,0.8335,0.8335,0.8435,0.8435,0.8486,0.8486,0.8487]},{"header":{"parameterUnit":"m.s-1","parameterCategory":1,"la1":30.2991,"la2":30.254,"lo1":-89.0895,"lo2":-89.0444,"dy":0.0017,"dx":0.0017,"nx":28,"ny":28,"refTime":"2026-02-26T09:00:00:Z","depth":0,"parameterNumber":3,"parameterNumberName":"V-component_of_WINDS"},"data":[0,0,0,0,0,0,0,0,0,0,0,0,0,0,0,0,0,0,0,0,0,0,0,0,0,0,0,0,0,0,0,0,0,0,0,0,0,0,0,0,0,0,0,0,0,0,0,0,0,0,0,0,0,0,0,0,0,0,3.7474,3.7474,0,3.749,3.749,3.7491,3.7468,3.7467,3.7466,3.7465,3.7481,3.7482,3.7483,0,0,0,0,0,0,0,0,0,0,0,0,0,3.7421,3.7422,3.7474,3.7474,3.7474,3.749,3.749,3.7491,3.7468,3.7467,3.7466,3.7465,3.7481,3.7482,3.7484,0,0,0,0,0,0,0,0,0,0,0,0,0,3.7441,3.7422,3.7474,3.7465,3.7464,3.749,3.749,3.7491,3.7468,3.7467,3.7465,3.7464,3.748,3.7482,3.7484,3.7519,0,0,3.7489,3.749,0,0,0,0,0,0,0,0,3.744,3.7443,3.7466,3.7465,3.7465,3.7476,3.7478,3.75,3.7468,3.7466,3.7465,3.7464,3.748,3.7482,3.7488,3.752,3.7521,3.7489,3.749,3.7491,3.7492,0,0,0,0,0,0,0,3.7439,3.7442,3.748,3.7466,3.7465,3.7459,3.7461,3.7482,3.748,3.7466,3.7465,3.7467,3.748,3.7486,3.7488,3.7521,3.7489,3.7491,3.7492,3.7493,3.7582,3.7584,0,0,0,0,0,0,3.7439,3.7441,3.748,3.7481,3.7449,3.7461,3.7463,3.7473,3.748,3.7479,3.7468,3.7466,3.7484,3.7486,3.7488,3.753,3.7491,3.7493,3.7494,3.7581,3.7583,3.7584,0,0,0,0,0,0,3.7438,3.7442,3.7479,3.7461,3.7465,3.7463,3.7475,3.7474,3.7481,3.7481,3.748,3.7475,3.7483,3.7486,3.7512,3.753,3.7494,3.7495,3.758,3.7582,3.7583,3.7614,0,0,0,0,0,0,3.7436,3.7442,3.7456,3.7461,3.7466,3.7503,3.7476,3.7475,3.7484,3.7481,3.7487,3.7487,3.7482,3.7509,3.7513,3.7532,3.7497,3.7578,3.758,3.7583,3.7612,3.7617,3.7622,0,0,0,0,0,3.7434,3.7464,3.7457,3.7461,3.7483,3.7504,3.7506,3.75,3.7485,3.7499,3.7499,3.7487,3.7527,3.7512,3.7517,3.7536,3.7577,3.758,3.7583,3.7609,3.7616,3.7622,0,0,0,0,0,0,3.7461,3.7464,3.7457,3.7489,3.7496,3.75,3.7517,3.7507,3.7519,3.7516,3.7507,3.7509,3.7537,3.7539,3.7521,3.757,3.755,3.7554,3.7568,3.7575,3.758,3.7579,3.7498,0,0,0,0,0,3.747,3.7487,3.7489,3.7517,3.7521,3.7519,3.7527,3.7522,3.7529,3.7532,3.7534,3.7541,3.7555,3.7565,3.7578,3.7611,3.7612,3.7627,3.7632,3.7636,3.764,3.7658,3.7664,3.7594,3.7594,3.7594,0,0,3.749,3.7494,3.7505,3.7523,3.7528,3.7545,3.7521,3.7541,3.7553,3.7535,3.7559,3.7561,3.7568,3.7598,3.7611,3.7601,3.766,3.764,3.7643,3.7645,3.7661,3.7668,3.7674,3.7596,3.7596,3.7595,0,0,3.7536,3.754,3.7564,3.757,3.7578,3.7576,3.7581,3.7586,3.7587,3.7611,3.7598,3.7612,3.7637,3.7643,3.7649,3.7695,3.7685,3.77,3.7727,3.7744,3.7749,3.7754,3.7771,3.7777,3.7703,3.7704,3.7704,0,3.7559,3.7585,3.7578,3.7598,3.7606,3.759,3.7613,3.7619,3.7631,3.7636,3.7624,3.7655,3.7659,3.769,3.7701,3.7706,3.7712,3.77,3.7749,3.7754,3.7759,3.7774,3.7781,3.7705,3.7705,3.7705,3.7705,0,3.7614,3.7632,3.765,3.7662,3.7672,3.7694,3.7689,3.77,3.7693,3.7692,3.7717,3.7721,3.7734,3.7741,3.7734,3.7771,3.7764,3.7751,3.773,3.7767,3.7782,3.7788,3.7708,3.7707,3.7707,3.7706,0,0,3.7677,3.7684,3.7691,3.7696,3.7704,3.7717,3.7738,3.7751,3.7761,3.7769,3.7786,3.7807,3.7795,3.7802,3.7796,3.7811,3.7847,3.7796,3.7796,3.7806,3.7888,3.7898,3.7905,3.784,3.7841,3.7842,3.7887,0,3.7723,3.7759,3.7753,3.7788,3.7804,3.7789,3.7807,3.7813,3.7812,3.7826,3.7824,3.784,3.7822,3.7826,3.784,3.784,3.7864,3.7837,3.7856,3.7857,3.7855,3.7913,3.7924,3.7966,3.7893,3.7894,3.7894,0,3.7781,3.7792,3.7829,3.7833,3.784,3.7856,3.7868,3.7881,3.7887,3.7885,3.7893,3.7884,3.7904,3.7882,3.7909,3.7891,3.7898,3.7899,3.79,3.7902,3.7878,3.7917,3.798,3.7986,3.7903,3.7903,3.7902,0,3.7824,3.7848,3.7873,3.7878,3.7883,3.7895,3.7898,3.7903,3.7911,3.7921,3.7926,3.7938,3.7945,3.7954,3.7948,3.7933,3.7976,3.7954,3.7976,3.7976,3.7986,3.7986,3.8052,3.799,3.799,3.799,3.799,0,3.7876,3.7899,3.7892,3.7908,3.7933,3.7925,3.795,3.7951,3.7955,3.7971,3.7957,3.7972,3.7963,3.7976,3.7972,3.7995,3.7998,3.7997,3.7996,3.7999,3.7999,3.8004,3.8001,3.7991,3.7991,3.7991,3.799,0,3.7929,3.7925,3.7951,3.7954,3.7955,3.7974,3.7976,3.7991,3.7988,3.8008,3.8012,3.8008,3.8023,3.8018,3.8034,3.8031,3.8061,3.8056,3.8059,3.8058,3.808,3.8078,3.8152,3.8161,3.8093,3.8094,3.8094,0,3.7963,3.798,3.7985,3.7994,3.7998,3.8013,3.8021,3.8013,3.8023,3.8031,3.8044,3.8058,3.8069,3.8093,3.8092,3.8104,3.8099,3.8124,3.8101,3.8104,3.81,3.81,3.8101,3.8129,3.813,3.8131,3.8131,0,3.8023,3.802,3.8033,3.8045,3.8056,3.8065,3.8072,3.808,3.8073,3.8084,3.8099,3.8107,3.8124,3.8138,3.8149,3.8151,3.814,3.8138,3.8144,3.8148,3.8149,3.8149,3.8073,3.8137,3.8136,3.8136,3.8136,3.8135,3.8068,3.8083,3.8088,3.8103,3.8108,3.8115,3.8129,3.8128,3.8141,3.8154,3.8148,3.8166,3.8171,3.8184,3.8188,3.8201,3.8192,3.82,3.8202,3.8204,3.8207,3.8147,3.8203,3.8203,3.8203,3.8202,3.8202,0,3.8128,3.8131,3.8144,3.8155,3.8167,3.8155,3.8163,3.8173,3.8189,3.8195,3.8205,3.8223,3.8236,3.8236,3.8248,3.8259,3.8254,3.8262,3.8262,3.8262,3.8215,3.8209,3.8266,3.8266,3.8266,3.8266,3.8266,3.8266,3.8161,3.8186,3.8183,3.821,3.8212,3.8229,3.8235,3.8241,3.8246,3.8266,3.8277,3.8276,3.8279,3.8292,3.8303,3.8303,3.8308,3.8318,3.8316,3.8272,3.8266,3.826,3.8254,3.8319,3.8319,3.8362,3.8363,3.8363]}]]